Location: Peebles
(55.6412°N, 3.1714°W)
Time: 22:20:12
(UTC+00:00)

deb Agena D - Pass Details

Date: 27 September 2023
Orbit: 794 x 979 km, 99.8° (Epoch: 28 November)

Event Time Altitude Azimuth Distance (km) Brightness Sun altitude
Rises 23:22:12 0° 27° (NNE) 3,693 9.9 -32.4°
Reaches altitude 10° 23:26:17 10° 53° (NE) 2,727 8.9 -32.7°
Enters shadow 23:26:54 11° 58° (ENE) 2,632 8.8 -32.7°
